KTXEAGLE7 Weather Reports


time (UTC)temp
C
wind
direction
speed
KPH
gust
KPH
rain 1hr
cm
rain 24hr
cm
rain mn
cm
humidity
%
barometer
mb
20260507204536 23 51 9.7 19.3 0.00 0.00 0.00 76 1015.0
20260507203030 23 72 6.4 17.7 0.00 0.00 0.00 76 1014.9
20260507201526 22 44 4.8 17.7 0.00 0.00 0.00 78 1015.0
20260507200025 22 339 6.4 19.3 0.00 0.00 0.00 76 1015.2
20260507194532 22 29 4.8 19.3 0.00 0.00 0.00 77 1015.3
20260507193020 22 25 6.4 16.1 0.00 0.00 0.00 77 1015.2
20260507191519 21 347 8.0 19.3 0.00 0.00 0.00 77 1015.7
20260507190020 21 360 6.4 19.3 0.00 0.00 0.00 78 1016.0
20260507184519 21 41 6.4 24.1 0.00 0.00 0.00 78 1016.3
20260507183015 21 336 6.4 20.9 0.00 0.00 0.00 81 1016.5
20260507181510 20 320 11.3 19.3 0.00 0.00 0.00 82 1016.7
20260507180017 20 349 9.7 20.9 0.00 0.00 0.00 82 1016.6
20260507174511 19 55 12.9 22.5 0.00 0.00 0.00 82 1016.7
20260507173013 19 21 9.7 25.7 0.00 0.00 0.00 83 1017.0
20260507171503 18 328 6.4 20.9 0.00 0.00 0.00 83 1017.0
20260507170002 18 23 8.0 20.9 0.00 0.00 0.00 86 1017.1
20260507164501 17 28 6.4 20.9 0.00 0.00 0.00 87 1017.3
20260507163101 17 53 4.8 20.9 0.00 0.00 0.00 86 1017.2
20260507161604 17 325 6.4 17.7 0.00 0.00 0.00 86 1017.0
20260507160058 17 318 8.0 17.7 0.00 0.00 0.00 86 1017.0
20260507154600 17 49 9.7 25.7 0.00 0.00 0.00 86 1016.6
20260507153058 17 13 8.0 25.7 0.00 0.00 0.00 86 1016.5
20260507151557 17 30 9.7 25.7 0.00 0.00 0.00 88 1016.4
20260507150055 17 342 12.9 27.4 0.00 0.00 0.00 88 1016.1
20260507144555 16 346 8.0 25.7 0.00 0.00 0.00 89 1016.7
20260507143105 16 36 8.0 20.9 0.00 0.00 0.00 90 1016.8
20260507141554 16 51 8.0 20.9 0.00 0.00 0.00 91 1016.9
20260507140051 16 322 8.0 20.9 0.00 0.00 0.00 92 1016.8
20260507134550 17 71 12.9 29.0 0.00 0.00 0.00 92 1016.1
20260507133051 16 35 17.7 32.2 0.00 0.00 0.00 93 1015.4
20260507131545 17 16 11.3 24.1 0.00 0.00 0.00 93 1015.4
20260507130043 17 32 9.7 29.0 0.00 0.00 0.00 93 1015.6
20260507124546 17 273 8.0 20.9 0.00 0.00 0.00 92 1016.3
20260507123041 17 355 6.4 17.7 0.00 0.00 0.00 92 1016.1
20260507121536 17 17 6.4 24.1 0.00 0.00 0.00 91 1016.0
20260507120035 17 295 4.8 16.1 0.00 0.00 0.00 91 1015.6
20260507114554 17 28 6.4 12.9 0.00 0.00 0.00 91 1015.6
20260507113057 17 322 3.2 22.5 0.00 0.00 0.00 91 1015.0
20260507111537 17 304 8.0 24.1 0.00 0.00 0.00 90 1014.1
20260507110026 17 5 6.4 16.1 0.00 0.00 0.00 90 1014.9
20260507104537 17 27 3.2 16.1 0.00 0.00 0.00 90 1014.4
20260507103026 17 355 3.2 12.9 0.00 0.00 0.00 90 1014.6
20260507101525 17 350 3.2 16.1 0.00 0.00 0.00 90 1014.4
20260507100020 17 15 4.8 17.7 0.00 0.00 0.00 90 1014.1
20260507094519 17 13 4.8 16.1 0.00 0.00 0.00 89 1013.9
20260507093020 17 317 6.4 19.3 0.00 0.00 0.00 89 1013.8
20260507091519 17 40 3.2 16.1 0.00 0.00 0.00 89 1013.9
20260507090017 17 64 3.2 16.1 0.00 0.00 0.00 89 1013.8
20260507084517 17 29 3.2 17.7 0.00 0.00 0.00 88 1013.8
20260507083015 17 38 8.0 17.7 0.00 0.00 0.00 88 1013.7
20260507081520 17 78 8.0 22.5 0.00 0.00 0.00 88 1013.9
20260507080012 17 41 6.4 17.7 0.00 0.00 0.00 87 1014.0
20260507074512 17 19 6.4 19.3 0.00 0.00 0.00 87 1013.9
20260507073010 17 56 8.0 19.3 0.00 0.00 0.00 87 1013.9
20260507071508 17 60 3.2 20.9 0.00 0.00 0.00 86 1014.1
20260507070012 17 346 9.7 19.3 0.00 0.00 0.00 86 1014.2
20260507064506 18 22 8.0 27.4 0.00 0.00 0.00 86 1014.2
20260507063007 18 5 6.4 17.7 0.00 0.00 0.00 87 1014.3
20260507061503 18 331 8.0 22.5 0.00 0.00 0.00 87 1014.3
20260507060105 18 345 8.0 17.7 0.00 0.00 0.00 87 1014.3
20260507054559 18 337 6.4 17.7 0.00 0.00 0.00 86 1014.2
20260507053057 18 350 6.4 20.9 0.00 0.00 0.00 86 1014.1
20260507051555 18 56 8.0 24.1 0.00 0.00 0.00 86 1014.0
20260507050152 18 5 6.4 17.7 0.00 0.00 0.00 87 1013.5
20260507044605 18 36 6.4 17.7 0.00 0.00 0.00 86 1013.6
20260507043102 18 80 4.8 24.1 0.00 0.00 0.00 86 1013.7
20260507041554 18 24 8.0 24.1 0.00 0.00 0.00 86 1013.7
20260507040046 18 317 6.4 17.7 0.00 0.00 0.00 85 1013.8
20260507034544 19 21 8.0 19.3 0.00 0.00 0.00 85 1013.4
20260507033043 19 13 11.3 24.1 0.00 0.00 0.00 84 1013.5
20260507031545 19 343 8.0 19.3 0.00 0.00 0.00 84 1013.5
20260507030038 19 326 11.3 22.5 0.00 0.00 0.00 83 1013.4
20260507024534 20 296 6.4 22.5 0.00 0.00 0.00 83 1012.9
20260507023033 20 11 6.4 19.3 0.00 0.00 0.00 82 1012.6
20260507021528 20 339 8.0 17.7 0.00 0.00 0.00 82 1012.3
20260507020042 20 319 8.0 20.9 0.00 0.00 0.00 82 1012.0
20260507014521 20 41 8.0 19.3 0.00 0.00 0.00 82 1011.4
20260507013022 21 5 8.0 20.9 0.00 0.00 0.00 82 1011.4
20260507011523 21 329 4.8 19.3 0.00 0.00 0.00 82 1011.2
20260507010014 21 20 3.2 12.9 0.00 0.00 0.00 84 1011.1
20260507004512 22 308 8.0 16.1 0.00 0.00 0.00 83 1010.7
20260507003010 22 314 8.0 22.5 0.00 0.00 0.00 83 1010.4
20260507001525 22 17 9.7 24.1 0.00 0.00 0.00 83 1010.1
20260507000003 23 72 8.0 20.9 0.00 0.00 0.00 82 1009.8
20260506234503 25 348 9.7 27.4 0.00 0.00 0.00 79 1009.7
20260506233102 29 338 0.0 0.0 0.00 0.00 0.00 79 1009.1
20260506231607 29 292 0.0 0.0 0.00 0.00 0.00 79 1008.8
20260506230113 29 248 0.0 0.0 0.00 0.00 0.00 80 1008.6
20260506224557 29 248 0.0 0.0 0.00 0.00 0.00 81 1008.6
20260506223103 28 248 0.0 4.8 0.00 0.00 0.00 83 1008.5
20260506221610 28 219 3.2 6.4 0.00 0.00 0.00 81 1008.6
20260506220056 29 246 4.8 9.7 0.00 0.00 0.00 80 1008.5
20260506214556 28 238 6.4 14.5 0.00 0.00 0.00 81 1008.4
20260506213055 28 161 4.8 12.9 0.00 0.00 0.00 82 1008.6
20260506211554 29 179 6.4 11.3 0.00 0.00 0.00 82 1008.7
20260506210056 28 185 3.2 11.3 0.00 0.00 0.00 85 1008.8